一网星座-0393星 (ONEWEB-0393 )

导读

ONEWEB-0393是英国卫星通信公司OneWeb部署的低轨互联网卫星,于2021年12月27日,由俄罗斯联盟2-1b火箭从哈萨克斯坦拜科努尔发射场发射升空,是该批次36颗组网卫星之一。作为OneWeb全球星座组网的组成部分,它运行在近地极地轨道,旨在为全球提供高速低延迟互联网接入,缩小数字鸿沟,服务航空、海运及偏远地区通信需求。

基本信息
目录编号:
50473
目录名称:
ONEWEB-0393
国际标识:
2021-132E
轨道中心:
EARTH
卫星名称:
一网星座-0393星
卫星全名:
一网星座-0393星 (ONEWEB-0393 )
卫星状态:
在轨 (已飞行1630 天)
发射日期:
2021-12-27 UTC
国别 :
英国 (GB)
星等 :
--
轨道信息
数据来源 国际轨道数据 AOE轨道数据
星历时间 2026-06-14T06:37:33+0800
13小时前
查看轨道信息
2026-06-09T00:00:00+0800
5天前
查看轨道信息
半长轴 7571.848km 7571.852km
偏心率 0.000202 0.0001934
轨道倾角 87.914° 87.915°
近地点辐角 85.363° 86.460°
升交点赤经 6.510° 7.559°
平近点角 274.773° 100.712°
近地点 1192.181km 1192.25km
远地点 1195.241km 1195.18km
周期 109.285分钟 109.286分钟
每日圈数 13.176498 13.176488
详细信息
平衡模式:
三轴稳定
覆盖范围:
全球
运营商:
一网卫星公司
运营商所在国:
英国
制造商(研发单位):
一网卫星公司
制造商所在国:
英国
使用方式:
暂无
卫星简介
OneWeb卫星网络由648颗重约125公斤的微型卫星组成,运行在1200公里的轨道上。 每颗卫星都能够提供至少每秒8千兆位的吞吐量,以使用其高吞吐量的Ku频段有效载荷为家庭和移动平台提供互联网接入。该卫星仍在工作。
2D轨道图
3D轨道图
轨道高度分析图
轨道倾角分析图
轨道综合分析图
查看轨道综合分析图